Regional Weather Roundup
Issued by NWS

Home | Current Version | Previous Version | Text Only | Print | Product List | Glossary On
Versions: 1 2 3 4 5 6 7 8 9 10 11 12 13 14 15 16 17 18 19 20 21 22 23 24 25 26 27 28 29 30 31 32 33 34 35 36 37 38 39 40 41 42 43 44 45 46 47 48 49 50
000
ASUS44 KOUN 232110
RWROK

WEATHER ROUNDUP FOR OKLAHOMA
NATIONAL WEATHER SERVICE NORMAN OK
400 PM CDT SAT SEP 23 2017

NOTE: "FAIR" INDICATES FEW OR NO CLOUDS BELOW 12,000 FEET WITH NO
      SIGNIFICANT WEATHER AND/OR OBSTRUCTIONS TO VISIBILITY.

OKZ001>007-009>012-014-015-017-232200-
NORTHWEST OKLAHOMA AND THE PANHANDLE

CITY           SKY/WX    TMP DP  RH WIND       PRES   REMARKS
GAGE           MOSUNNY   88  62  41 S21G33    29.89F
GUYMON         CLOUDY    79  63  57 SE20G28   29.86R
ENID/WOODRING  MOSUNNY   91  64  40 S13G20    29.89F HX  93
$$

OKZ016-021>023-033>039-044-045-232200-
SOUTHWEST OKLAHOMA

CITY           SKY/WX    TMP DP  RH WIND       PRES   REMARKS
LAWTON/REGL    SUNNY     90  65  43 SE13G23   29.89F HX  92
LAWTON/FT SILL MOSUNNY   89  70  52 S17G24    29.88F HX  94
FREDERICK      MOSUNNY   91  62  37 SE17G29   29.84F HX  91
CLINTON        MOSUNNY   87  59  38 S22G32    29.91F
HOBART         MOSUNNY   90  61  37 S21G31    29.89F HX  90
ALTUS AFB      MOSUNNY   90  57  33 S16G23    29.86F
$$

OKZ018>020-024>031-232200-
CENTRAL OKLAHOMA

CITY           SKY/WX    TMP DP  RH WIND       PRES   REMARKS
OKLAHOMA CITY  MOSUNNY   88  62  41 S16       29.92F
OKC/WILEY POST MOSUNNY   89  64  43 S16G23    29.92F HX  90
OKC/TINKER AFB SUNNY     89  62  40 S14       29.92F HX  90
STILLWATER     SUNNY     92  62  36 SE15      29.91F HX  92
GUTHRIE        SUNNY     91  61  36 S13G25    29.91F HX  91
$$

OKZ008-013-054>072-232200-
NORTHEAST OKLAHOMA

CITY           SKY/WX    TMP DP  RH WIND       PRES   REMARKS
TULSA          MOSUNNY   92  64  39 S14       29.92F HX  93
TULSA/JONES    SUNNY     91  64  40 S10       29.93F HX  92
PONCA CITY     MOSUNNY   91  63  39 SE16      29.90F HX  92
MUSKOGEE       MOSUNNY   91  67  44 SE9       29.94F HX  94
$$

OKZ032-040>043-046>053-073>077-232200-
SOUTH CENTRAL/SOUTHEAST OKLAHOMA

CITY           SKY/WX    TMP DP  RH WIND       PRES   REMARKS
ARDMORE/DWNTWN MOSUNNY   90  59  35 S9        29.90F
MCALESTER      MOSUNNY   90  67  46 SE6       29.93F HX  93
$$





USA.gov is the U.S. government's official web portal to all federal, state and local government web resources and services.